Location: *
(13.2257°S, 48.7193°W)
Time: 14:02:20
(UTC+00:00)

Cosmos 1354 Rocket - Pass Details

Date: 13 February 2026
Orbit: 759 x 779 km, 74.0° (Epoch: 11 March)

Event Time Altitude Azimuth Distance (km) Brightness Sun altitude
Rises 07:42:57 0° 200° (SSW) 3,233 7.3 -21.7°
Reaches altitude 10° 07:45:22 10° 204° (SSW) 2,301 6.4 -21.2°
Maximum altitude 07:50:28 58° 281° (WNW) 887 3.9 -20.0°
Drops below altitude 10° 07:55:32 10° 360° (N) 2,279 6.3 -18.9°
Sets 07:57:55 0° 4° (N) 3,199 7.1 -18.3°
